Orbital Elements at Epoch 2459000.5 (2020-May-31.0) TDB
Reference: JPL 16 (heliocentric ecliptic J2000)
Element | Value | Uncertainty (1-sigma) | Units |
e | .2252331706375952 | 9.4947e-08 | |
a | 2.758704655077735 | 2.3598e-08 | au |
q | 2.137352858761883 | 2.5053e-07 | au |
i | 9.242700664678212 | 7.1848e-06 | deg |
node | 6.464556412770442 | 3.316e-05 | deg |
peri | 173.3113289612777 | 3.5084e-05 | deg |
M | 110.1139600319947 | 1.3577e-05 | deg |
tp | 2458488.587046479411 (2019-Jan-05.08704648) | 5.9851e-05 | TDB |
period | 1673.617615912326 4.58 | 2.1474e-05 5.879e-08 | d yr |
n | .2151028984023666 | 2.76e-09 | deg/d |
Q | 3.380056451393587 | 2.8913e-08 | au |
|
| | Orbit Determination Parameters
Additional Information
|